Ubon Ratchathani, Thailand

4:42 AM ICT on March 02, 2017 (GMT +0700)
Ubon Ratchathani

Weather History for VTUU - November, 2012

Change the Weather History Date:

Wednesday, November 21, 2012

  Actual Average Record
Temperature  
Mean Temperature 86 °F -  
Max Temperature 95 °F 86 °F - ()
Min Temperature 76 °F 64 °F - ()
Cooling Degree Days 20    
Growing Degree Days 36 (Base 50)    
Moisture  
Dew Point 74 °F    
Average Humidity 71    
Maximum Humidity 89    
Minimum Humidity 46    
Precipitation  
Precipitation 0.00 in 0.01 in - ()
Sea Level Pressure  
Sea Level Pressure 29.82 in    
Wind  
Wind Speed 2 mph ()    
Max Wind Speed 5 mph    
Max Gust Speed -    
Visibility 5.8 miles    
Events      
T = Trace of Precipitation, MM = Missing Value Source: Averaged Metar Reports

Daily Weather History Graph

Daily Weather History Graph

Search for Another Location

Airport or City:

Trip Planner

Search our weather history database for the weather conditions in past years. The results will help you decide how hot, cold, wet, or windy it might be!

Date:

Astronomy

Nov. 21, 2012 Rise Set
Actual Time 6:05 AM ICT 5:27 PM ICT
Civil Twilight 5:42 AM ICT 5:50 PM ICT
Nautical Twilight 5:16 AM ICT 6:16 PM ICT
Astronomical Twilight 4:50 AM ICT 6:42 PM ICT
Moon 12:30 PM ICT (11/21) No Moon Set
Length of Visible Light 12h 07m
Length of Day
11h 21m
First Quarter, 56% of the Moon is Illuminated
Nov 21
First Quarter
Nov 28
Full
Dec 6
Last Quarter
Dec 13
New
Dec 20
First Quarter

Hourly Weather History & Observations

Time (ICT) Temp. Heat Index Dew Point Humidity Pressure Visibility Wind Dir Wind Speed Gust Speed Precip Events Conditions
12:00 AM 82.4 °F 89.5 °F 75.2 °F 79% 29.83 in 5.0 mi South 2.3 mph - N/A   Unknown
1:00 AM 81 °F - 74 °F 75% 29.86 in 6 mi SW 2.3 mph - -   Mist
1:00 AM 80.6 °F 86.2 °F 75.2 °F 84% 29.83 in 5.6 mi SW 3.5 mph - N/A   Unknown
2:00 AM 80.6 °F 86.2 °F 75.2 °F 84% 29.83 in 5.6 mi SW 2.3 mph - N/A   Unknown
3:00 AM 80.6 °F 86.2 °F 75.2 °F 84% 29.83 in 5.6 mi North 2.3 mph - N/A   Unknown
4:00 AM 78.8 °F - 75.2 °F 89% 29.83 in 5.0 mi East 2.3 mph - N/A   Unknown
5:00 AM 78.8 °F - 75.2 °F 89% 29.83 in 5.0 mi NNE 2.3 mph - N/A   Unknown
6:00 AM 78.8 °F - 75.2 °F 89% 29.86 in 5.0 mi NE 1.2 mph - N/A   Mostly Cloudy
6:30 AM 77.0 °F - 73.4 °F 89% 29.86 in 5.0 mi East 1.2 mph - N/A   Mostly Cloudy
7:00 AM 77 °F - 74 °F 89% 29.88 in 5 mi East 1.2 mph - -   Mist
7:00 AM 78.8 °F - 75.2 °F 89% 29.86 in 5.0 mi East 1.2 mph - N/A   Mostly Cloudy
8:00 AM 82.4 °F 89.5 °F 75.2 °F 79% 29.89 in 5.6 mi ENE 2.3 mph - N/A   Unknown
9:00 AM 84.2 °F 92.3 °F 75.2 °F 74% 29.92 in 6.2 mi ENE 2.3 mph - N/A   Scattered Clouds
10:00 AM 86.0 °F 95.1 °F 75.2 °F 70% 29.89 in 6.2 mi SE 3.5 mph - N/A   Mostly Cloudy
11:00 AM 89.6 °F 99.8 °F 75.2 °F 62% 29.86 in 6.2 mi ESE 3.5 mph - N/A   Mostly Cloudy
12:00 PM 91.4 °F 102.5 °F 75.2 °F 59% 29.83 in 6.2 mi SSE 4.6 mph - N/A   Mostly Cloudy
1:00 PM 92 °F - 74 °F 46% 29.80 in 6 mi North 3.5 mph - -   Partly Cloudy
1:00 PM 91.4 °F 100.1 °F 73.4 °F 55% 29.80 in 6.2 mi North 3.5 mph - N/A   Mostly Cloudy
2:00 PM 93.2 °F 102.4 °F 73.4 °F 52% 29.77 in 6.2 mi West 3.5 mph - N/A   Mostly Cloudy
3:00 PM 93.2 °F 102.4 °F 73.4 °F 52% 29.74 in 6.2 mi SSE 3.5 mph - N/A   Mostly Cloudy
4:00 PM 93.2 °F 100.5 °F 71.6 °F 49% 29.74 in 6.2 mi South 3.5 mph - N/A   Mostly Cloudy
5:00 PM 91.4 °F 98.4 °F 71.6 °F 52% 29.74 in 6.2 mi South 3.5 mph - N/A   Mostly Cloudy
5:30 PM 87.8 °F 93.8 °F 71.6 °F 58% 29.77 in 6.2 mi SSE 3.5 mph - N/A   Mostly Cloudy
6:00 PM 86.0 °F 93.4 °F 73.4 °F 66% 29.77 in 6.2 mi SE 2.3 mph - N/A   Mostly Cloudy
7:00 PM 86 °F - 76 °F 65% 29.79 in 6 mi SSE 3.5 mph - -   Scattered Clouds
7:00 PM 84.2 °F 90.9 °F 73.4 °F 70% 29.77 in 6.2 mi SSE 3.5 mph - N/A   Mostly Cloudy
8:00 PM 84.2 °F 90.9 °F 73.4 °F 70% 29.80 in 6.2 mi SSW 2.3 mph - N/A   Mostly Cloudy
9:00 PM 82.4 °F 87.2 °F 71.6 °F 70% 29.83 in 6.2 mi SW 2.3 mph - N/A   Scattered Clouds